Weather History for KRTN - July, 2013

Change the Weather History Date:

Saturday, July 13, 2013

  Actual Average (KTAD) Record (KTAD)
Temperature  
Mean Temperature 76 °F 74 °F  
Max Temperature 93 °F 89 °F 100 °F (1979)
Min Temperature 60 °F 59 °F 45 °F (1987)
Degree Days  
Heating Degree Days 0 0  
Month to date heating degree days 0  
Since 1 June heating degree days 39  
Since 1 July heating degree days 0  
Cooling Degree Days 10 9  
Month to date cooling degree days 111  
Year to date cooling degree days 280  
Since 1 June cooling degree days 252  
Growing Degree Days 26 (Base 50)    
Moisture  
Dew Point 49 °F    
Average Humidity 41    
Maximum Humidity 69    
Minimum Humidity 21    
Precipitation  
Precipitation 0.00 in 0.08 in 0.99 in (2001)
Month to date precipitation 0.80  
Year to date precipitation 6.73  
Sea Level Pressure  
Sea Level Pressure 29.89 in    
Wind  
Wind Speed 6 mph (WSW)    
Max Wind Speed 23 mph    
Max Gust Speed 34 mph    
Visibility 10 miles    
Events      
T = Trace of Precipitation, MM = Missing Value Source: NWS Daily Summary

Daily Weather History Graph

Daily Weather History Graph

Search for Another Location

Airport or City:

Trip Planner

Search our weather history database for the weather conditions in past years. The results will help you decide how hot, cold, wet, or windy it might be!

Date:

Astronomy

Jul. 13, 2013 Rise Set
Actual Time 5:49 AM MDT 8:17 PM MDT
Civil Twilight 5:19 AM MDT 8:47 PM MDT
Nautical Twilight 4:42 AM MDT 9:24 PM MDT
Astronomical Twilight 4:01 AM MDT 10:05 PM MDT
Moon 10:58 AM MDT (7/13) 11:09 PM MDT (7/13)
Length of Visible Light 15h 27m
Length of Day
14h 27m
Waxing Crescent, 26% of the Moon is Illuminated
Jul 13
Waxing Crescent
Jul 15
First Quarter
Jul 22
Full
Jul 29
Last Quarter
Aug 6
New

Hourly Weather History & Observations

Time (MDT) Temp. Dew Point Humidity Pressure Visibility Wind Dir Wind Speed Gust Speed Precip Events Conditions
12:53 AM 66.0 °F 52.0 °F 60% 29.89 in 10.0 mi NNW 5.8 mph - N/A   Mostly Cloudy
1:53 AM 66.9 °F 52.0 °F 59% 29.87 in 10.0 mi North 4.6 mph - N/A   Partly Cloudy
2:53 AM 64.0 °F 52.0 °F 65% 29.88 in 10.0 mi Calm Calm - N/A   Clear
3:53 AM 63.0 °F 51.1 °F 65% 29.90 in 10.0 mi Calm Calm - N/A   Clear
4:53 AM 61.0 °F 50.0 °F 67% 29.94 in 10.0 mi Calm Calm - N/A   Clear
5:53 AM 60.1 °F 50.0 °F 69% 29.96 in 10.0 mi Calm Calm - N/A   Clear
6:53 AM 66.9 °F 52.0 °F 59% 29.96 in 10.0 mi Calm Calm - N/A   Clear
7:53 AM 69.1 °F 52.0 °F 54% 29.96 in 10.0 mi Calm Calm - N/A   Clear
8:53 AM 73.9 °F 51.1 °F 45% 29.95 in 10.0 mi NE 4.6 mph - N/A   Clear
9:53 AM 77.0 °F 52.0 °F 42% 29.95 in 10.0 mi Variable 4.6 mph - N/A   Clear
10:53 AM 84.9 °F 50.0 °F 30% 29.91 in 10.0 mi South 13.8 mph 18.4 mph N/A   Clear
11:53 AM 86.0 °F 48.9 °F 28% 29.89 in 10.0 mi South 11.5 mph 19.6 mph N/A   Clear
12:53 PM 89.1 °F 46.9 °F 23% 29.86 in 10.0 mi South 15.0 mph 25.3 mph N/A   Clear
1:53 PM 91.9 °F 46.9 °F 21% 29.84 in 10.0 mi SSW 23.0 mph 34.5 mph N/A   Partly Cloudy
2:53 PM 87.1 °F 46.0 °F 24% 29.87 in 10.0 mi SSW 17.3 mph - N/A   Clear
3:53 PM 90.0 °F 46.0 °F 22% 29.84 in 10.0 mi South 15.0 mph 23.0 mph N/A   Partly Cloudy
4:53 PM 89.1 °F 45.0 °F 22% 29.84 in 10.0 mi South 11.5 mph 23.0 mph N/A   Clear
5:53 PM 87.1 °F 44.1 °F 22% 29.84 in 10.0 mi WNW 8.1 mph - N/A   Mostly Cloudy
6:53 PM 82.9 °F 46.9 °F 28% 29.85 in 10.0 mi WNW 13.8 mph - N/A   Overcast
7:53 PM 80.1 °F 46.0 °F 30% 29.86 in 10.0 mi North 9.2 mph - N/A   Partly Cloudy
8:53 PM 75.9 °F 46.9 °F 36% 29.88 in 10.0 mi South 4.6 mph - N/A   Clear
9:53 PM 75.0 °F 48.0 °F 38% 29.90 in 10.0 mi WNW 3.5 mph - 0.00 in   Clear
10:53 PM 73.9 °F 46.9 °F 38% 29.87 in 10.0 mi NNE 9.2 mph - N/A   Partly Cloudy
11:53 PM 75.0 °F 50.0 °F 41% 29.88 in 10.0 mi NNE 9.2 mph - N/A   Partly Cloudy